Home   Weather   Compton   Past weeks

Flag for USA Past Weather in Compton, California, USA — Yesterday and Last 2 Weeks

70 °F

Scattered clouds.

Feels Like: 74 °F
Forecast: 63 / 74 °F
Wind: 8 mph from West

Location: Hawthorne Municipal Airport

Current Time: Oct 24, 2016 at 2:57:04 PM

Latest Report: Oct 24, 2016 at 1:53 PM

Visibility: 10 mi

Pressure: 30.04 "Hg

Humidity: 71%

Dew Point: 60 °F

Location of ComptonLocation

Past Weather in Compton — Graph


Compton Temperature Yesterday

Maximum temperature yesterday: 77 °F (at 1:53 PM)
Minimum temperature yesterday: 61 °F (at 6:53 AM)
Average temperature yesterday: 67 °F

High & Low Weather Summary for the Past Weeks

High96 °F (Oct 20, 2:53 PM)100% (Oct 17, 3:00 AM)30.09 "Hg (Oct 17, 3:00 AM)
Low59 °F (Oct 13, 2:53 AM)5% (Oct 20, 1:53 PM)29.81 "Hg (Oct 21, 4:53 PM)
Average68 °F70%29.96 "Hg
* Reported Oct 9 1:53 PM — Oct 24 1:53 PM, Compton, Weather by CustomWeather, © 2016

Note: Actual official high and low records may vary slightly from our data, if they occured in-between our weather recording intervals... More about our weather records


Compton Weather History for the Previous 24 Hours

Scroll right to see more
Time TempWeatherWind HumidityBarometerVisibility
1:53 PM
Mon, Oct 24
70 °FScattered clouds.8 mph71%30.04 "Hg10 mi
12:53 PM71 °FBroken clouds.8 mph71%30.05 "Hg10 mi
11:53 AM69 °FScattered clouds.5 mph79%30.07 "Hg10 mi
10:53 AM68 °FPartly sunny.No wind84%30.07 "Hg10 mi
9:53 AM65 °FPassing clouds.No wind91%30.08 "Hg10 mi
8:53 AM64 °FPartly sunny.3 mph97%30.09 "Hg10 mi
7:53 AM63 °FLight rain. Fog.No wind100%30.07 "Hg6 mi
6:53 AM63 °FOvercast.3 mph97%30.03 "Hg10 mi
5:53 AM64 °FLight rain. Partly cloudy.8 mph97%30.03 "Hg7 mi
4:53 AM64 °FMostly cloudy.5 mph97%30.00 "Hg10 mi
3:53 AM64 °FPassing clouds.6 mph97%30.01 "Hg10 mi
2:53 AM64 °FClear.5 mph97%30.01 "Hg10 mi
1:53 AM65 °FPassing clouds.3 mph94%30.01 "Hg10 mi
12:53 AM66 °FOvercast.No wind90%30.00 "Hg10 mi
11:53 PM
Sun, Oct 23
65 °FPassing clouds.No wind91%30.00 "Hg10 mi
10:53 PM66 °FPassing clouds.5 mph87%30.00 "Hg10 mi
9:53 PM67 °FPassing clouds.No wind81%30.00 "Hg10 mi
8:53 PM67 °FPassing clouds.No wind81%29.99 "Hg10 mi
7:53 PM68 °FThunderstorms. Passing clouds.6 mph78%29.99 "Hg8 mi
6:53 PM70 °FPassing clouds.5 mph66%29.97 "Hg10 mi
5:53 PM70 °FSunny.7 mph57%29.98 "Hg10 mi
4:53 PM71 °FPartly sunny.8 mph49%29.97 "Hg10 mi
3:53 PM75 °FPassing clouds.10 mph34%29.99 "Hg10 mi
2:53 PM77 °FScattered clouds.9 mph37%29.97 "Hg10 mi
Weather by CustomWeather, © 2016

See weather overviewHow to use our weather pages